FW9098 Weather Reports


time (UTC)temp
C
wind
direction
speed
KPH
gust
KPH
rain 1hr
cm
rain 24hr
cm
rain mn
cm
humidity
%
barometer
mb
20260506165537 22 143 9.7 22.5 0.00 0.00 0.00 47 1003.5
20260506165036 22 123 6.4 25.7 0.00 0.00 0.00 47 1003.4
20260506164552 23 360 9.7 25.7 0.00 0.00 0.00 45 1003.5
20260506164036 23 156 9.7 30.6 0.00 0.00 0.00 45 1003.6
20260506163536 23 148 9.7 33.8 0.00 0.00 0.00 45 1003.6
20260506163102 23 142 11.3 33.8 0.00 0.00 0.00 45 1003.6
20260506162536 23 360 11.3 37.0 0.00 0.00 0.00 45 1003.6
20260506162037 23 157 16.1 37.0 0.00 0.00 0.00 45 1003.7
20260506161547 23 123 14.5 35.4 0.00 0.00 0.00 44 1003.7
20260506161039 23 125 11.3 33.8 0.00 0.00 0.00 46 1003.7
20260506160536 23 112 11.3 29.0 0.00 0.00 0.00 46 1003.9
20260506160050 23 120 11.3 30.6 0.00 0.00 0.00 45 1003.9
20260506155536 23 190 12.9 30.6 0.00 0.00 0.00 46 1003.8
20260506155038 23 103 12.9 35.4 0.00 0.00 0.00 45 1003.8
20260506154552 23 110 9.7 35.4 0.00 0.00 0.00 46 1003.7
20260506154039 23 155 16.1 35.4 0.00 0.00 0.00 45 1003.7
20260506153535 23 153 9.7 29.0 0.00 0.00 0.00 45 1003.8
20260506153109 24 138 14.5 33.8 0.00 0.00 0.00 44 1003.8
20260506152537 24 155 9.7 33.8 0.00 0.00 0.00 44 1003.9
20260506152036 23 138 14.5 32.2 0.00 0.00 0.00 43 1003.9
20260506151546 24 157 8.0 33.8 0.00 0.00 0.00 43 1003.8
20260506151035 24 125 12.9 33.8 0.00 0.00 0.00 42 1003.8
20260506150536 24 150 16.1 35.4 0.00 0.00 0.00 42 1003.8
20260506150048 24 99 14.5 46.7 0.00 0.00 0.00 42 1003.8
20260506145535 24 103 17.7 46.7 0.00 0.00 0.00 41 1003.8
20260506145036 24 133 17.7 46.7 0.00 0.00 0.00 41 1003.9
20260506144547 24 132 11.3 38.6 0.00 0.00 0.00 42 1003.7
20260506144035 24 132 12.9 38.6 0.00 0.00 0.00 42 1003.9
20260506143535 24 144 17.7 41.8 0.00 0.00 0.00 40 1003.8
20260506143045 25 127 9.7 41.8 0.00 0.00 0.00 40 1003.8
20260506142538 25 155 12.9 38.6 0.00 0.00 0.00 39 1003.8
20260506142035 25 128 14.5 38.6 0.00 0.00 0.00 38 1003.9
20260506141549 25 96 14.5 37.0 0.00 0.00 0.00 38 1003.9
20260506141035 26 112 8.0 35.4 0.00 0.00 0.00 38 1003.9
20260506140539 26 123 8.0 38.6 0.00 0.00 0.00 39 1003.9
20260506140051 25 116 14.5 37.0 0.00 0.00 0.00 39 1003.9
20260506135536 25 102 16.1 37.0 0.00 0.00 0.00 39 1004.0
20260506135035 26 147 14.5 37.0 0.00 0.00 0.00 38 1004.0
20260506134547 25 167 14.5 37.0 0.00 0.00 0.00 39 1004.0
20260506134036 26 104 14.5 33.8 0.00 0.00 0.00 38 1004.2
20260506133536 25 163 11.3 33.8 0.00 0.00 0.00 38 1004.2
20260506133050 26 153 11.3 35.4 0.00 0.00 0.00 37 1004.1
20260506132535 26 130 8.0 35.4 0.00 0.00 0.00 37 1004.3
20260506132035 26 122 11.3 33.8 0.00 0.00 0.00 37 1004.3
20260506131546 25 115 12.9 33.8 0.00 0.00 0.00 38 1004.5
20260506131035 25 163 8.0 32.2 0.00 0.00 0.00 41 1004.5
20260506130536 24 99 11.3 37.0 0.00 0.00 0.00 41 1004.5
20260506130047 24 116 17.7 37.0 0.00 0.00 0.00 39 1004.6
20260506125536 24 157 12.9 35.4 0.00 0.00 0.00 39 1004.9
20260506125036 24 98 11.3 30.6 0.00 0.00 0.00 39 1004.9
20260506124547 25 129 4.8 20.9 0.00 0.00 0.00 40 1004.9
20260506124036 24 150 6.4 27.4 0.00 0.00 0.00 40 1004.9
20260506123536 24 108 9.7 30.6 0.00 0.00 0.00 39 1005.0
20260506123050 24 164 11.3 30.6 0.00 0.00 0.00 39 1005.0
20260506122535 24 140 9.7 27.4 0.00 0.00 0.00 40 1005.2
20260506122035 24 122 8.0 27.4 0.00 0.00 0.00 39 1005.2
20260506121602 24 92 11.3 27.4 0.00 0.00 0.00 39 1005.4
20260506121036 24 116 8.0 22.5 0.00 0.00 0.00 40 1005.3
20260506120536 24 143 8.0 25.7 0.00 0.00 0.00 39 1005.4
20260506120048 24 94 9.7 25.7 0.00 0.00 0.00 39 1005.5
20260506115534 23 134 12.9 25.7 0.00 0.00 0.00 40 1005.6
20260506115035 23 90 6.4 22.5 0.00 0.00 0.00 43 1005.6
20260506114546 23 121 9.7 22.5 0.00 0.00 0.00 44 1005.7
20260506114036 23 130 12.9 22.5 0.00 0.00 0.00 43 1005.7
20260506113534 24 145 11.3 35.4 0.00 0.00 0.00 43 1005.7
20260506113045 23 82 11.3 35.4 0.00 0.00 0.00 43 1005.9
20260506112537 24 112 11.3 35.4 0.00 0.00 0.00 42 1006.1
20260506112038 25 95 9.7 32.2 0.00 0.00 0.00 43 1006.1
20260506111543 24 179 9.7 32.2 0.00 0.00 0.00 44 1006.0
20260506111036 24 126 11.3 22.5 0.00 0.00 0.00 42 1006.1
20260506110539 25 165 4.8 25.7 0.00 0.00 0.00 44 1006.2
20260506110056 24 137 6.4 29.0 0.00 0.00 0.00 46 1006.4
20260506105536 24 118 11.3 29.0 0.00 0.00 0.00 45 1006.6
20260506105036 24 123 11.3 29.0 0.00 0.00 0.00 45 1006.5
20260506104549 23 137 11.3 32.2 0.00 0.00 0.00 44 1006.6
20260506104035 23 104 11.3 32.2 0.00 0.00 0.00 45 1007.0
20260506103537 23 161 9.7 29.0 0.00 0.00 0.00 45 1007.0
20260506103047 24 65 9.7 29.0 0.00 0.00 0.00 44 1007.2
20260506102536 23 131 11.3 27.4 0.00 0.00 0.00 44 1007.1
20260506102039 23 178 12.9 27.4 0.00 0.00 0.00 44 1007.2
20260506101613 23 148 11.3 30.6 0.00 0.00 0.00 45 1007.3
20260506101034 23 86 11.3 30.6 0.00 0.00 0.00 44 1007.3
20260506100535 23 93 9.7 30.6 0.00 0.00 0.00 45 1007.4
20260506100051 23 111 11.3 27.4 0.00 0.00 0.00 44 1007.6
20260506095536 23 136 9.7 27.4 0.00 0.00 0.00 43 1007.6
20260506095036 23 127 8.0 27.4 0.00 0.00 0.00 45 1007.5
20260506094553 23 117 4.8 19.3 0.00 0.00 0.00 47 1007.6
20260506094036 23 110 8.0 25.7 0.00 0.00 0.00 45 1007.6
20260506093537 23 115 8.0 25.7 0.00 0.00 0.00 44 1007.6
20260506093046 24 139 4.8 17.7 0.00 0.00 0.00 43 1007.6
20260506092536 24 117 4.8 20.9 0.00 0.00 0.00 43 1007.7
20260506092036 23 153 4.8 20.9 0.00 0.00 0.00 44 1007.8
20260506091548 23 110 3.2 17.7 0.00 0.00 0.00 46 1007.8
20260506091039 23 136 8.0 19.3 0.00 0.00 0.00 46 1007.7
20260506090536 23 124 6.4 19.3 0.00 0.00 0.00 47 1007.9
20260506090100 23 98 3.2 12.9 0.00 0.00 0.00 47 1007.7
20260506085535 23 96 3.2 16.1 0.00 0.00 0.00 47 1007.8
20260506085035 22 0 4.8 16.1 0.00 0.00 0.00 49 1007.6
20260506084552 22 78 9.7 16.1 0.00 0.00 0.00 47 1007.7
20260506084037 22 103 3.2 14.5 0.00 0.00 0.00 48 1007.8
20260506083540 22 90 3.2 14.5 0.00 0.00 0.00 49 1007.8
20260506083046 22 111 4.8 12.9 0.00 0.00 0.00 47 1007.8
20260506082540 22 0 1.6 12.9 0.00 0.00 0.00 49 1007.8
20260506082036 22 139 3.2 14.5 0.00 0.00 0.00 50 1007.7
20260506081544 21 101 3.2 14.5 0.00 0.00 0.00 51 1007.9
20260506081036 22 90 4.8 12.9 0.00 0.00 0.00 50 1007.9
20260506080536 22 0 3.2 11.3 0.00 0.00 0.00 51 1007.9
20260506073048 20 112 0.0 6.4 0.00 0.00 0.00 51 1008.1
20260506072537 20 34 1.6 6.4 0.00 0.00 0.00 49 1008.0
20260506072037 20 103 1.6 6.4 0.00 0.00 0.00 50 1008.1
20260506071548 20 0 0.0 6.4 0.00 0.00 0.00 52 1008.1
20260506071039 20 202 1.6 8.0 0.00 0.00 0.00 52 1008.1
20260506070536 20 153 1.6 8.0 0.00 0.00 0.00 53 1008.2
20260506062037 18 0 0.0 9.7 0.00 0.00 0.00 59 1008.4
20260506061550 18 286 1.6 6.4 0.00 0.00 0.00 60 1008.4
20260506061034 17 277 0.0 6.4 0.00 0.00 0.00 60 1008.5
20260506060611 17 327 0.0 6.4 0.00 0.00 0.00 61 1008.4
20260506051034 16 279 0.0 6.4 0.00 0.00 0.00 64 1008.4
20260506050535 16 288 0.0 8.0 0.00 0.00 0.00 65 1008.5
20260506050109 16 288 3.2 12.9 0.00 0.00 0.00 65 1008.5
20260506045034 16 318 3.2 11.3 0.00 0.00 0.00 65 1008.3
20260506044548 16 267 4.8 9.7 0.00 0.00 0.00 65 1008.3
20260506044036 16 234 3.2 11.3 0.00 0.00 0.00 66 1008.2
20260506043533 16 292 4.8 11.3 0.00 0.00 0.00 67 1008.2
20260506043049 16 299 4.8 11.3 0.00 0.00 0.00 68 1008.2
20260506042536 16 288 3.2 9.7 0.00 0.00 0.00 68 1008.1
20260506042037 16 269 3.2 9.7 0.00 0.00 0.00 69 1008.0
20260506041558 15 213 1.6 9.7 0.00 0.00 0.00 69 1008.1
20260506041034 15 223 1.6 4.8 0.00 0.00 0.00 70 1008.1
20260506040534 15 234 1.6 4.8 0.00 0.00 0.00 70 1008.0
20260506040055 15 234 1.6 4.8 0.00 0.00 0.00 70 1008.0
20260506035538 15 0 1.6 11.3 0.00 0.00 0.00 70 1007.9
20260506035034 16 331 3.2 11.3 0.00 0.00 0.00 70 1008.0
20260506034552 16 302 3.2 12.9 0.00 0.00 0.00 70 1007.9
20260506034037 16 301 4.8 12.9 0.00 0.00 0.00 70 1007.9
20260506033537 16 306 4.8 12.9 0.00 0.00 0.00 69 1007.9
20260506033047 16 265 4.8 9.7 0.00 0.00 0.00 69 1007.9
20260506032540 16 279 3.2 14.5 0.00 0.00 0.00 69 1007.9
20260506032036 16 296 3.2 14.5 0.00 0.00 0.00 69 1007.9
20260506031545 16 325 3.2 14.5 0.00 0.00 0.00 69 1007.9
20260506031036 16 290 4.8 14.5 0.00 0.00 0.00 69 1007.8
20260506030536 16 304 4.8 14.5 0.00 0.00 0.00 69 1007.8
20260506030045 16 321 6.4 14.5 0.00 0.00 0.00 69 1007.9
20260506025610 16 298 4.8 12.9 0.00 0.00 0.00 69 1007.9
20260506025036 16 327 3.2 14.5 0.00 0.00 0.00 69 1007.9
20260506024546 16 288 4.8 14.5 0.00 0.00 0.00 69 1007.9
20260506024036 16 331 4.8 16.1 0.00 0.00 0.00 69 1007.8
20260506023534 16 325 4.8 16.1 0.00 0.00 0.00 68 1007.8
20260506023106 16 303 3.2 11.3 0.00 0.00 0.00 68 1007.8
20260506022536 16 291 4.8 14.5 0.00 0.00 0.00 68 1007.8
20260506022036 16 324 3.2 14.5 0.00 0.00 0.00 68 1007.8
20260506021548 16 271 4.8 14.5 0.00 0.00 0.00 68 1007.7
20260506021035 16 298 4.8 12.9 0.00 0.00 0.00 68 1007.7
20260506020535 16 257 3.2 16.1 0.00 0.00 0.00 68 1007.6
20260506020053 16 281 6.4 16.1 0.00 0.00 0.00 67 1007.6
20260506015536 17 321 6.4 14.5 0.00 0.00 0.00 67 1007.5
20260506015037 17 329 4.8 20.9 0.00 0.00 0.00 66 1007.5
20260506014547 17 251 4.8 20.9 0.00 0.00 0.00 66 1007.4
20260506014035 17 340 9.7 17.7 0.00 0.00 0.00 66 1007.4
20260506013535 17 303 8.0 16.1 0.00 0.00 0.00 66 1007.3
20260506013056 17 286 4.8 12.9 0.00 0.00 0.00 65 1007.4
20260506012539 17 270 4.8 12.9 0.00 0.00 0.00 65 1007.3
20260506012037 17 270 4.8 19.3 0.00 0.00 0.00 64 1007.4
20260506011548 17 289 6.4 19.3 0.00 0.00 0.00 64 1007.4
20260506011035 17 271 8.0 19.3 0.00 0.00 0.00 64 1007.3
20260506010537 17 273 6.4 24.1 0.00 0.00 0.00 64 1007.2
20260506010050 17 246 8.0 24.1 0.00 0.00 0.00 64 1007.2
20260506005535 17 267 8.0 17.7 0.00 0.00 0.00 64 1007.2
20260506005037 17 273 8.0 16.1 0.00 0.00 0.00 65 1007.1
20260506004546 17 313 3.2 14.5 0.00 0.00 0.00 65 1007.1
20260506004036 16 335 4.8 14.5 0.00 0.00 0.00 65 1007.0
20260506003536 16 306 4.8 9.7 0.00 0.00 0.00 65 1007.0
20260506003050 16 274 4.8 9.7 0.00 0.00 0.00 66 1006.8
20260506002535 15 302 3.2 6.4 0.00 0.00 0.00 66 1006.7
20260506002035 15 279 0.0 3.2 0.00 0.00 0.00 65 1006.7
20260506001554 15 0 0.0 3.2 0.00 0.00 0.00 65 1006.6
20260506001036 15 0 0.0 0.0 0.00 0.00 0.00 65 1006.6
20260506000535 15 0 0.0 0.0 0.00 0.00 0.00 65 1006.7
20260506000054 15 0 0.0 0.0 0.00 0.00 0.00 66 1006.6
20260505235535 15 0 0.0 1.6 0.00 0.00 0.00 66 1006.4
20260505235037 15 0 0.0 1.6 0.00 0.00 0.00 65 1006.3
20260505234546 15 0 0.0 1.6 0.00 0.00 0.00 65 1006.4
20260505234035 15 0 0.0 0.0 0.00 0.00 0.00 65 1006.4
20260505233541 15 0 0.0 0.0 0.00 0.00 0.00 65 1006.2
20260505233056 15 0 0.0 0.0 0.00 0.00 0.00 64 1006.2
20260505232536 15 0 0.0 0.0 0.00 0.00 0.00 64 1006.1
20260505232036 15 0 0.0 0.0 0.00 0.00 0.00 65 1006.1
20260505231552 15 0 0.0 0.0 0.00 0.00 0.00 65 1006.0
20260505231036 15 0 0.0 0.0 0.00 0.00 0.00 64 1006.0
20260505230536 15 0 0.0 4.8 0.00 0.00 0.00 64 1005.9
20260505230112 15 0 0.0 4.8 0.00 0.00 0.00 64 1005.9
20260505225536 15 112 0.0 4.8 0.00 0.00 0.00 64 1005.9
20260505225035 15 119 0.0 3.2 0.00 0.00 0.00 64 1005.8
20260505224545 15 0 0.0 0.0 0.00 0.00 0.00 63 1005.7
20260505224036 15 0 0.0 0.0 0.00 0.00 0.00 62 1005.6
20260505223535 15 0 0.0 0.0 0.00 0.00 0.00 63 1005.6
20260505223047 15 0 0.0 0.0 0.00 0.00 0.00 63 1005.5
20260505222536 15 0 0.0 1.6 0.00 0.00 0.00 63 1005.4
20260505222040 15 0 0.0 1.6 0.00 0.00 0.00 62 1005.4
20260505221557 15 0 0.0 4.8 0.00 0.00 0.00 62 1005.4
20260505221037 16 121 0.0 4.8 0.00 0.00 0.00 61 1005.3
20260505220536 16 121 0.0 4.8 0.00 0.00 0.00 60 1005.2
20260505220056 16 0 0.0 0.0 0.00 0.00 0.00 60 1005.2
20260505215537 16 0 0.0 3.2 0.00 0.00 0.00 60 1005.2
20260505215036 16 0 0.0 3.2 0.00 0.00 0.00 59 1005.0
20260505214548 16 0 0.0 3.2 0.00 0.00 0.00 59 1005.0
20260505214035 16 0 0.0 4.8 0.00 0.00 0.00 59 1004.9
20260505213536 16 122 0.0 4.8 0.00 0.00 0.00 59 1004.9
20260505213053 16 0 0.0 3.2 0.00 0.00 0.00 59 1004.9
20260505212535 16 0 0.0 4.8 0.00 0.00 0.00 59 1004.9
20260505212036 16 0 0.0 9.7 0.00 0.00 0.00 58 1004.8
20260505211600 16 118 1.6 9.7 0.00 0.00 0.00 58 1004.8
20260505211036 16 117 3.2 9.7 0.00 0.00 0.00 58 1004.7
20260505210535 17 122 3.2 8.0 0.00 0.00 0.00 57 1004.8
20260505210056 17 109 1.6 4.8 0.00 0.00 0.00 57 1004.8
20260505205535 17 113 0.0 4.8 0.00 0.00 0.00 56 1004.7
20260505205035 17 113 1.6 8.0 0.00 0.00 0.00 56 1004.6
20260505204550 17 117 1.6 12.9 0.00 0.00 0.00 56 1004.6
20260505204034 17 134 3.2 12.9 0.00 0.00 0.00 56 1004.2
20260505203534 17 360 3.2 12.9 0.00 0.00 0.00 56 1004.2
20260505203043 17 115 1.6 12.9 0.00 0.00 0.00 56 1004.2
20260505202534 17 116 4.8 12.9 0.00 0.00 0.00 55 1004.0
20260505202034 17 118 3.2 14.5 0.00 0.00 0.00 55 1004.1
20260505201549 17 119 3.2 14.5 0.00 0.00 0.00 55 1004.0
20260505201038 17 0 6.4 14.5 0.00 0.00 0.00 54 1004.0
20260505200534 18 117 3.2 17.7 0.00 0.00 0.00 54 1004.0
20260505200056 18 117 6.4 17.7 0.00 0.00 0.00 54 1003.9
20260505195536 18 131 3.2 14.5 0.00 0.00 0.00 54 1004.0
20260505195035 18 0 3.2 17.7 0.00 0.00 0.00 54 1003.9
20260505194549 18 123 4.8 17.7 0.00 0.00 0.00 53 1004.0
20260505194035 18 123 6.4 14.5 0.00 0.00 0.00 53 1003.9
20260505193536 18 115 3.2 16.1 0.00 0.00 0.00 53 1004.0
20260505193059 18 119 3.2 17.7 0.00 0.00 0.00 52 1003.9
20260505192536 18 131 6.4 19.3 0.00 0.00 0.00 52 1003.9
20260505192033 18 132 4.8 19.3 0.00 0.00 0.00 52 1003.8
20260505191549 18 117 4.8 17.7 0.00 0.00 0.00 52 1003.8
20260505191038 18 153 6.4 17.7 0.00 0.00 0.00 51 1003.8
20260505190538 18 103 6.4 20.9 0.00 0.00 0.00 51 1003.8
20260505190052 18 108 6.4 20.9 0.00 0.00 0.00 51 1003.9
20260505185536 18 119 8.0 20.9 0.00 0.00 0.00 51 1003.9
20260505185034 19 117 6.4 19.3 0.00 0.00 0.00 51 1003.9
20260505184551 19 100 4.8 19.3 0.00 0.00 0.00 50 1003.9
20260505184035 19 109 6.4 19.3 0.00 0.00 0.00 50 1003.8
20260505183537 19 118 6.4 20.9 0.00 0.00 0.00 50 1003.8
20260505183045 19 125 8.0 20.9 0.00 0.00 0.00 49 1003.7
20260505182535 19 193 8.0 20.9 0.00 0.00 0.00 49 1003.8
20260505182035 20 155 6.4 27.4 0.00 0.00 0.00 48 1003.9
20260505181554 20 136 8.0 27.4 0.00 0.00 0.00 48 1003.8
20260505181035 20 131 11.3 27.4 0.00 0.00 0.00 48 1003.9
20260505180535 20 150 11.3 25.7 0.00 0.00 0.00 47 1003.8
20260505180054 20 130 8.0 29.0 0.00 0.00 0.00 47 1003.8
20260505175534 20 119 9.7 29.0 0.00 0.00 0.00 46 1003.9
20260505175034 20 119 11.3 25.7 0.00 0.00 0.00 46 1003.8
20260505174603 21 119 9.7 22.5 0.00 0.00 0.00 45 1003.8
20260505174035 21 159 6.4 24.1 0.00 0.00 0.00 45 1003.8
20260505173536 21 124 9.7 24.1 0.00 0.00 0.00 44 1003.9
20260505173047 21 121 4.8 38.6 0.00 0.00 0.00 44 1003.8
20260505172535 21 125 8.0 38.6 0.00 0.00 0.00 44 1003.9
20260505172038 22 161 11.3 38.6 0.00 0.00 0.00 43 1003.8
20260505171548 22 128 14.5 32.2 0.00 0.00 0.00 43 1003.8
20260505171036 22 136 9.7 30.6 0.00 0.00 0.00 43 1003.9
20260505170536 22 146 9.7 30.6 0.00 0.00 0.00 42 1004.1
20260505170046 22 121 9.7 32.2 0.00 0.00 0.00 42 1003.9